Regional Weather Roundup
Issued by NWS

Home | Current Version | Previous Version | Graphics & Text | Print | Product List | Glossary On
Versions: 1 2 3 4 5 6 7 8 9 10 11 12 13 14 15 16 17 18 19 20 21 22 23 24 25 26 27 28 29 30 31 32 33 34 35 36 37 38 39 40 41 42 43 44 45 46 47 48 49 50
000
ASUS43 KFSD 290110
RWRSD

WEATHER ROUNDUP FOR SOUTH DAKOTA
NATIONAL WEATHER SERVICE SIOUX FALLS SD
800 PM CDT THU JUL 28 2016

NOTE: "FAIR" INDICATES FEW OR NO CLOUDS BELOW 12,000 FEET WITH NO
SIGNIFICANT WEATHER AND/OR OBSTRUCTIONS TO VISIBILITY.


SDZ001>005-009-010-012>017-290200-
NORTHWEST AND NORTH CENTRAL SOUTH DAKOTA

CITY           SKY/WX    TMP DP  RH WIND       PRES   REMARKS
BUFFALO          N/A     69  62  78 E9        30.07S
FAITH            N/A     63  61  93 E9        30.12S
MOBRIDGE       MOSUNNY   76  54  46 N7        30.07R
$$

SDZ012>016-024>037-041>051-057-063-072>074-290200-
SOUTHWEST AND SOUTH CENTRAL SOUTH DAKOTA

CITY           SKY/WX    TMP DP  RH WIND       PRES   REMARKS
RAPID CTY ARPT MOSUNNY   72  57  59 NE6       30.13S
PIERRE         CLOUDY    66  62  87 W7        30.07S
CUSTER         CLOUDY    64  51  62 E7        30.24R
PHILIP         CLOUDY    65  62  90 E7        30.10R
PINE RIDGE     SUNNY     72  60  66 NE10      30.13R
WINNER         MOCLDY    70  64  81 SW6       30.07R
$$

SDZ004>011-016>023-039-040-290200-
NORTHEAST SOUTH DAKOTA

CITY           SKY/WX    TMP DP  RH WIND       PRES   REMARKS
ABERDEEN       CLEAR     77  59  53 E5        30.05S
WATERTOWN      CLEAR     74  55  51 NE8       30.07R
BROOKINGS      CLOUDY    72  56  57 E8        30.06S
SISSETON         N/A     74  62  66 NE10      30.04S
$$

SDZ017-020-022-023-036>040-048>070-290200-
SOUTHEAST SOUTH DAKOTA

CITY           SKY/WX    TMP DP  RH WIND       PRES   REMARKS
SIOUX FALLS    MOCLDY    71  58  63 NE8       30.04F
HURON          CLOUDY    76  58  53 E7        30.03S
CHAMBERLAIN    PTCLDY    78  60  54 NE5       30.05R
MITCHELL       CLOUDY    76  60  57 E9        30.03S
YANKTON        CLEAR     75  61  60 NE6       30.01R
$$

ABBREVIATIONS USED IN REMARKS
   TC - TEMPERATURE IN CELSIUS
  WCI - WIND CHILL INDEX
   HX - HEAT INDEX
  VSB - VISIBILITY





USA.gov is the U.S. government's official web portal to all federal, state and local government web resources and services.